Flag for U.S.A. Weather past 2 weeks in Wichita, Kansas, U.S.A.

Now
58 °F

Scattered clouds.


Feels Like: 56 °F
Forecast: 36 / 59 °F
Wind: 10 mph from West

Location: Wichita Mid-Continent Airport

Current Time: Mar 26, 2015 at 6:15:44 PM

Latest Report: Mar 26, 2015 at 5:53 PM


Visibility: 10 mi

Pressure: 30.07 "Hg

Humidity: 35%

Dew point: 30 °F

Location of WichitaLocation

Historic Weather in Wichita — Graph

°F

Wichita temperature yesterday

Maximum temperature yesterday: 70 °F (at 1:53 PM)
Minimum temperature yesterday: 42 °F (at 9:53 PM)
Average temperature yesterday: 53 °F

Past Weeks' High & Low Weather Summary

 TemperatureHumidityPressure
High82 °F (Mar 16, 2:53 PM)100% (Mar 19, 2:53 AM)30.33 "Hg (Mar 19, 2:53 AM)
Low30 °F (Mar 15, 7:53 AM)16% (Mar 11, 4:53 PM)29.73 "Hg (Mar 24, 7:53 AM)
Average54 °F57%30.09 "Hg
* Reported Mar 11 4:53 PM — Mar 26 4:53 PM, Wichita, Weather by CustomWeather, © 2015

Note: Actual official high and low records may vary slightly from our data, if they occured in-between our weather recording intervals... More about our weather records

Advertising

Wichita weather history for previous 24 hours

 ConditionsComfort  
Time TempWeatherWind HumidityBarometerVisibility
4:53 PM
Thu, Mar 26
57 °FPassing clouds.6 mph36%30.10 "Hg10 mi
3:53 PM55 °FPassing clouds.7 mph39%30.14 "Hg10 mi
2:53 PM54 °FPassing clouds.9 mph38%30.17 "Hg10 mi
1:53 PM51 °FScattered clouds.7 mph41%30.21 "Hg10 mi
12:53 PM49 °FScattered clouds.5 mph43%30.23 "Hg10 mi
11:53 AM48 °FScattered clouds.9 mph44%30.26 "Hg10 mi
10:53 AM45 °FPassing clouds.10 mph49%30.28 "Hg10 mi
9:53 AM42 °FPassing clouds.10 mph60%30.28 "Hg10 mi
8:53 AM38 °FPassing clouds.10 mph70%30.27 "Hg10 mi
7:53 AM36 °FPassing clouds.13 mph75%30.25 "Hg10 mi
6:53 AM37 °FPassing clouds.12 mph82%30.23 "Hg10 mi
5:53 AM38 °FPartly cloudy.9 mph83%30.22 "Hg10 mi
4:53 AM40 °FPassing clouds.9 mph80%30.20 "Hg10 mi
3:53 AM40 °FMostly cloudy.10 mph80%30.19 "Hg10 mi
2:53 AM41 °FOvercast.13 mph76%30.17 "Hg10 mi
1:53 AM41 °FMostly cloudy.15 mph80%30.16 "Hg10 mi
12:53 AM41 °FLight rain. Mostly cloudy.18 mph82%30.18 "Hg10 mi
12:00 AM41 °FLight rain. Partly cloudy.23 mph89%30.15 "Hg10 mi
10:53 PM
Wed, Mar 25
42 °FLight rain. Mostly cloudy.16 mph85%30.14 "Hg8 mi
9:53 PM42 °FRain. Fog.18 mph85%30.13 "Hg5 mi
8:53 PM44 °FLight rain. Overcast.22 mph79%30.10 "Hg10 mi
7:53 PM45 °FOvercast.24 mph80%30.03 "Hg10 mi
6:53 PM48 °FCloudy.26 mph71%29.97 "Hg10 mi
Weather by CustomWeather, © 2015

See weather overviewHow to use our weather pages